Dewpoint
61 61 61 60 57 55 53 52 51 50 50 49 49 49 49 50 49 48 46 48 49 46 44 46 46 46 46 38 33 39 39 47 47 46 44 43 43 44 40 42 43 45 45 47 48 49 44
62 61 61 61 59 56 54 52 51 50 50 49 49 49 49 49 48 48 47 45 48 48 46 46 47 46 44 35 34 38 38 44 45 45 43 45 45 46 43 41 41 44 45 46 49 49 48
61 61 61 62 61 58 55 53 51 50 50 49 49 49 48 48 48 47 46 45 47 48 48 46 47 44 40 37 34 38 38 44 45 46 42 46 46 46 46 39 43 43 41 43 47 47 47
61 61 61 61 62 59 55 54 52 51 50 49 47 47 47 48 47 46 44 44 46 47 48 48 47 44 35 38 39 41 41 44 46 46 46 45 44 46 45 44 42 41 40 35 42 46 45
59 60 61 61 61 60 57 54 53 51 50 49 48 47 48 47 45 44 44 44 47 47 48 47 45 42 35 39 40 43 42 39 45 46 45 44 44 43 42 40 37 38 32 33 37 46 45
54 59 59 60 61 60 58 56 54 51 50 49 49 48 48 47 45 44 45 46 48 48 45 44 43 38 39 39 43 43 42 41 42 43 43 43 42 39 39 38 31 33 33 35 34 41 43
51 54 57 57 60 61 59 57 55 52 50 49 48 47 47 46 44 44 46 44 38 37 37 34 34 35 41 42 44 40 41 40 41 40 35 38 34 34 36 37 34 35 35 33 36 42 40
50 51 53 55 56 59 60 57 56 53 51 49 48 47 46 46 44 45 47 41 38 38 31 36 36 40 42 41 35 38 41 38 38 34 37 35 33 37 37 37 35 35 35 35 38 39 39
47 49 51 53 55 56 60 58 56 53 51 49 48 47 46 44 46 46 43 41 41 40 35 35 37 37 38 42 35 35 40 39 38 35 36 32 34 37 37 36 33 34 31 33 36 40 39
45 47 50 52 53 55 58 58 56 53 51 49 48 46 46 44 44 44 39 40 41 40 31 32 35 37 40 39 36 42 43 41 38 35 38 36 38 36 35 35 31 25 32 34 36 33 27
45 45 49 51 53 54 54 58 55 53 51 49 47 46 45 45 44 40 40 40 40 40 20 31 33 39 39 35 37 36 43 41 36 38 37 35 37 35 34 34 30 30 32 36 34 32 29
44 45 48 50 51 53 54 57 55 53 51 48 47 46 46 45 44 44 40 40 41 29 17 28 34 34 33 36 38 37 40 40 39 36 38 39 41 38 36 34 32 32 29 29 30 28 22
45 45 45 48 51 52 53 56 54 52 50 48 46 46 47 44 42 42 41 40 29 22 29 29 30 31 30 31 33 34 34 34 31 30 31 35 36 38 38 31 31 29 25 22 21 21 20
44 44 44 46 49 52 52 54 54 52 49 47 46 46 46 44 44 43 42 34 23 28 28 29 28 31 28 30 30 31 32 30 34 32 32 28 27 37 38 34 30 28 25 20 16 18 20
41 44 44 46 47 51 51 54 53 51 49 46 47 45 45 45 45 44 39 26 25 27 27 28 30 27 29 32 31 31 31 30 32 36 28 28 29 36 38 38 34 28 25 27 23 20 20
40 41 42 45 45 49 50 54 52 50 48 46 45 44 43 45 45 43 34 28 31 32 29 29 29 28 27 30 29 29 28 31 31 36 34 32 28 34 36 37 35 32 29 23 23 14 11
39 40 42 43 44 47 50 52 51 48 48 47 44 39 45 46 45 39 28 28 31 32 35 30 32 31 28 28 28 26 28 33 34 35 32 30 29 32 33 32 30 30 27 28 25 24 20
40 40 41 43 44 46 49 49 50 47 46 48 42 36 45 45 35 35 29 31 34 32 34 33 31 30 28 29 28 28 29 33 34 33 29 34 29 29 29 33 35 34 30 27 23 22 23
37 39 41 42 42 47 48 50 50 47 47 44 39 39 44 44 30 29 30 33 34 33 33 32 30 30 31 30 29 32 33 36 34 32 30 31 29 26 28 28 31 31 32 31 28 28 24
37 38 41 41 41 46 48 51 49 46 46 46 37 34 39 41 38 32 29 31 33 35 33 30 30 30 29 29 30 30 31 35 36 35 34 32 30 25 20 24 28 29 29 31 30 25 25
38 39 40 41 40 45 46 50 49 47 46 46 38 33 35 31 31 32 31 29 32 32 33 29 28 30 29 28 29 30 32 36 37 36 34 34 29 27 26 28 30 29 27 29 29 29 25
39 40 40 41 41 44 46 50 49 48 45 43 37 35 34 32 32 31 32 30 26 31 31 29 28 29 30 30 29 30 31 32 34 35 34 34 29 29 25 27 27 27 28 29 28 27 29
40 40 39 41 42 43 51 49 49 47 47 41 37 35 33 33 32 31 30 30 27 32 33 31 28 28 31 30 30 30 32 33 35 34 34 33 29 27 24 25 24 22 24 26 28 28 28
39 39 39 41 42 44 50 49 49 47 45 37 34 35 31 30 31 31 30 32 31 32 32 36 34 32 36 37 33 31 31 33 33 34 35 33 30 29 27 23 20 22 21 24 26 28 29
38 38 40 41 42 44 45 49 49 47 46 37 35 33 28 28 31 31 31 32 34 35 35 36 35 36 38 34 29 28 28 28 29 30 31 35 35 30 24 22 23 20 22 20 19 24 28
38 38 39 40 41 43 45 48 48 47 46 37 34 34 28 27 26 26 30 32 32 34 34 35 37 40 38 32 30 24 23 24 26 28 30 31 33 30 27 21 18 22 27 28 27 27 32
38 39 39 40 42 47 48 48 48 46 45 36 34 36 29 25 28 28 28 30 30 32 32 34 36 36 37 32 28 25 24 26 25 23 26 27 27 27 27 23 23 26 27 29 16 22 32
38 38 41 41 47 49 48 48 46 45 46 35 34 37 30 29 29 30 30 27 26 30 31 32 32 34 33 29 28 26 25 23 23 25 26 26 24 25 26 24 20 25 26 22 29 30 29
38 38 41 41 42 48 48 47 45 45 44 36 32 33 33 30 28 31 31 30 30 31 32 34 31 33 35 32 31 31 25 24 21 24 26 23 25 24 25 25 29 32 29 28 29 28 29
Wind_Speed
22 20 20 21 16 15 15 14 12 12 13 13 14 16 16 14 13 14 14 17 10 11 13 14 14 15 7 4 3 7 10 5 5 3 2 5 7 9 11 12 13 4 12 9 7 18 6
24 23 21 22 19 18 16 15 12 12 12 14 14 15 15 15 14 14 14 16 15 11 12 13 12 12 3 7 2 7 6 6 5 4 1 6 5 4 6 6 15 8 5 6 7 7 8
24 24 24 24 24 19 17 15 13 12 13 13 14 15 16 15 14 14 14 15 15 13 13 12 11 7 8 16 4 2 4 2 2 1 3 2 10 7 4 9 14 10 5 4 10 1 5
29 26 26 28 24 20 18 17 13 13 12 13 13 13 15 14 13 16 16 16 16 14 13 13 9 6 6 2 3 10 10 2 6 3 1 2 7 11 6 5 8 9 4 2 5 4 6
33 31 29 25 22 21 18 17 13 14 13 13 14 13 14 12 14 15 16 16 17 14 13 9 5 5 5 2 2 5 6 5 6 2 2 3 4 4 5 6 9 1 9 8 2 12 9
39 32 31 31 20 20 20 19 16 15 13 13 12 12 12 12 13 14 17 20 14 9 8 8 8 8 2 6 5 3 9 11 1 1 3 1 7 8 9 13 14 12 9 7 5 4 7
35 37 35 33 31 23 24 20 18 14 14 12 11 11 11 11 11 13 12 6 4 1 4 6 4 8 0 1 3 1 6 5 3 1 6 1 5 13 17 13 17 16 8 11 8 6 3
36 34 34 35 36 34 23 22 18 14 14 12 10 9 10 10 12 11 5 2 3 2 5 8 7 1 2 3 4 4 3 4 1 3 6 6 3 6 9 10 24 19 11 5 5 15 8
37 36 34 32 36 36 24 24 19 15 13 12 8 8 8 8 9 6 4 4 2 5 2 2 2 3 1 5 3 2 2 1 2 7 6 9 4 8 6 9 18 15 22 15 4 9 4
37 36 35 35 34 37 32 24 20 17 14 11 8 7 6 7 4 3 1 4 2 3 2 1 1 2 1 1 3 3 1 2 6 4 9 3 6 4 11 17 12 12 25 22 24 6 5
38 38 36 35 33 31 36 25 21 17 12 11 9 6 5 4 4 1 2 2 1 1 2 0 2 2 0 3 3 2 4 3 6 8 5 5 6 5 11 6 9 2 27 23 20 18 3
38 36 40 35 34 31 31 28 22 18 14 11 9 5 6 4 3 2 3 2 3 1 2 1 3 2 2 2 3 3 3 8 4 9 11 8 4 6 1 7 13 5 23 16 11 4 2
35 37 38 38 38 32 29 27 24 20 17 11 8 7 8 6 3 6 3 2 2 1 1 5 5 5 5 1 3 1 1 2 0 5 7 8 9 4 2 4 6 10 11 5 4 4 5
33 35 37 43 47 34 34 33 27 22 16 11 7 10 5 3 5 6 2 3 1 3 6 3 10 7 3 1 3 2 3 2 3 6 6 5 3 7 12 4 1 4 4 6 7 7 5
34 34 36 37 44 32 33 34 29 23 19 12 11 5 3 5 7 3 3 3 3 6 6 9 13 10 2 1 2 1 3 5 3 2 5 6 2 3 4 5 4 1 4 2 4 3 5
35 34 36 37 39 35 26 26 30 27 24 16 6 7 6 9 5 3 3 3 3 4 6 9 6 7 7 9 5 2 3 3 4 2 1 6 7 3 5 4 1 2 1 3 3 5 4
35 36 36 36 37 35 32 24 30 31 28 22 4 7 7 10 2 1 4 6 6 5 3 8 4 7 9 9 8 6 3 1 1 1 4 4 4 1 3 2 1 2 2 3 3 2 3
36 37 39 37 38 36 29 46 31 34 34 16 6 5 9 8 4 5 7 6 2 8 1 2 2 2 7 11 9 7 7 2 3 6 2 3 5 5 2 1 1 2 1 2 3 3 1
38 39 38 37 41 42 38 39 36 35 34 13 10 5 2 3 7 10 5 4 4 9 5 4 3 2 3 6 6 8 7 2 4 4 2 3 4 6 1 3 2 5 7 5 2 2 4
38 38 37 36 39 40 43 38 37 37 36 8 8 8 4 5 3 7 9 9 7 2 6 2 2 2 1 4 5 6 4 0 4 4 4 3 4 4 9 4 5 6 10 11 6 6 6
37 37 38 38 41 39 36 27 37 36 39 7 7 7 9 10 13 11 5 8 11 7 3 6 2 4 3 4 7 6 9 5 4 3 2 3 3 1 1 3 2 3 8 17 15 15 12
35 37 38 36 43 42 45 35 33 35 29 3 8 7 6 6 7 19 8 8 15 9 10 7 3 8 5 5 4 7 15 7 5 5 4 2 3 2 1 1 2 4 7 8 16 12 15
36 36 38 37 43 42 23 37 33 33 21 6 4 1 8 12 11 13 7 8 13 13 3 7 8 10 13 7 5 5 3 12 12 11 8 7 7 4 3 2 2 9 17 18 10 8 15
35 34 37 35 39 34 4 29 32 32 18 2 4 5 5 8 14 14 7 11 13 8 9 5 10 7 3 1 2 3 10 13 11 6 5 6 6 3 2 3 4 5 1 1 19 10 12
36 34 34 35 36 38 29 21 26 27 29 6 2 2 4 8 11 11 7 10 13 10 8 7 5 3 2 3 6 5 2 3 4 4 5 5 5 3 4 5 5 3 4 4 4 3 3
34 34 35 35 38 36 33 26 27 25 26 2 2 2 3 11 4 2 9 13 12 8 4 4 3 2 3 3 3 5 6 6 5 3 4 6 5 4 3 3 4 4 5 4 4 4 7
33 32 34 39 47 31 21 30 28 25 21 2 2 4 5 8 5 4 5 11 4 6 8 5 4 3 2 3 3 4 4 6 10 11 7 5 3 8 7 5 6 5 4 3 3 3 7
31 29 27 34 28 26 30 26 23 21 21 2 2 4 4 6 9 9 6 4 3 4 9 6 6 1 2 5 4 4 4 7 6 9 9 10 10 7 6 5 8 3 3 2 4 8 10
28 26 24 29 20 4 23 21 19 13 18 7 4 7 11 12 6 10 16 12 6 4 6 4 3 4 3 4 3 2 2 3 6 8 2 7 8 7 9 6 4 11 16 11 12 9 9
Wind_Direction
287 283 270 263 253 257 262 271 284 289 296 305 310 315 321 319 320 321 326 314 304 301 307 311 318 328 344 320 271 59 2 18 20 64 338 302 292 202 191 189 170 205 181 197 327 305 264
294 291 282 268 242 244 246 260 270 282 292 301 308 310 316 319 317 320 316 312 308 305 302 306 317 334 284 277 103 65 352 30 2 57 283 358 328 309 235 198 182 150 91 165 288 326 301
295 293 292 286 248 237 244 249 261 274 286 293 307 315 320 321 323 323 317 311 301 304 308 298 309 316 268 257 3 41 314 109 72 71 195 67 359 341 357 198 141 136 152 173 240 329 333
309 298 295 296 293 233 238 246 253 264 274 289 301 310 312 321 321 324 313 306 297 293 294 294 292 298 254 318 19 27 359 124 116 47 119 235 342 301 257 327 101 122 100 121 314 212 324
329 321 303 298 296 233 236 244 247 261 270 279 291 304 312 315 319 323 313 300 294 286 281 277 262 204 270 347 329 344 341 321 126 121 212 12 314 255 201 219 120 142 182 178 345 204 220
335 328 331 307 283 247 236 238 237 248 259 273 286 302 314 318 327 327 311 301 281 289 279 234 246 279 263 299 291 306 288 296 113 172 81 281 196 213 195 205 176 158 151 172 196 20 141
329 332 330 331 303 247 238 230 238 237 252 264 279 300 308 313 322 320 324 341 54 19 245 212 258 298 325 289 304 288 285 198 104 325 145 15 107 192 207 207 142 125 106 178 202 222 136
325 324 325 327 319 309 237 229 229 228 248 258 274 294 305 322 318 314 324 286 99 193 315 265 247 92 163 161 37 17 263 217 81 91 123 111 272 218 246 161 127 111 104 101 174 190 214
322 320 318 321 320 318 244 231 221 222 236 250 265 283 300 319 314 297 203 301 56 7 259 165 133 249 134 180 114 245 211 73 147 104 141 166 190 231 122 205 140 153 181 170 171 148 258
326 324 316 317 320 320 295 222 218 217 219 233 246 268 289 310 297 231 153 121 31 7 84 66 211 262 346 208 56 255 236 312 44 70 103 85 191 191 125 174 209 196 176 155 123 100 130
323 321 318 316 308 314 334 212 212 207 211 220 231 250 266 248 292 179 148 126 343 32 69 13 106 143 343 142 180 290 222 247 91 79 178 44 113 106 74 340 141 97 140 144 145 136 206
319 322 326 318 310 307 318 258 200 197 194 221 224 225 233 151 244 236 124 18 46 102 106 137 137 138 86 176 192 208 249 225 246 47 86 84 83 60 9 331 117 176 99 84 85 93 107
315 318 324 324 317 296 298 281 189 194 181 214 216 219 187 185 179 154 138 103 57 94 279 164 162 157 136 42 26 216 158 73 191 92 39 44 39 349 347 46 39 110 101 85 69 151 208
324 321 330 338 323 296 308 302 185 186 164 197 210 175 222 189 147 145 120 123 212 180 194 173 132 130 116 111 27 304 176 82 11 88 89 77 60 346 348 41 73 132 78 151 156 180 191
331 328 331 325 318 296 304 305 181 167 152 180 180 191 185 176 128 114 145 169 200 205 155 159 153 147 161 171 134 254 221 172 208 177 114 125 66 320 349 348 8 300 72 179 118 92 136
326 330 326 317 319 328 309 286 174 160 143 173 183 173 142 143 123 154 173 257 225 260 152 181 175 182 149 169 146 202 208 47 166 230 16 152 112 312 314 331 12 74 223 132 53 153 171
329 327 323 322 327 316 313 333 173 157 141 179 182 156 153 132 124 142 190 217 207 235 45 177 230 199 143 152 159 186 140 329 144 205 27 131 100 199 115 304 280 31 118 60 93 139 174
327 325 326 324 329 316 302 312 184 159 143 170 182 176 160 141 154 218 193 200 248 167 120 88 245 285 155 147 169 176 175 114 183 162 98 59 103 120 184 112 1 46 240 149 152 221 80
324 323 323 325 330 321 314 290 172 166 144 143 157 126 151 184 186 195 237 201 214 155 193 189 232 46 9 154 129 141 128 304 171 149 151 133 124 121 119 331 307 224 216 212 146 104 196
321 320 321 324 325 322 320 162 168 169 157 159 146 143 149 204 240 196 200 189 179 144 210 190 60 67 81 131 117 127 127 338 83 105 62 78 159 164 181 182 159 195 212 219 181 203 206
317 317 320 322 325 319 313 191 172 171 174 166 178 185 170 177 220 214 224 193 167 165 229 167 209 210 199 149 126 121 121 133 76 86 49 91 104 98 58 52 59 205 216 213 209 220 212
313 312 316 323 326 319 311 188 178 171 176 177 167 158 160 177 191 191 222 210 181 163 158 189 188 199 126 105 85 154 142 177 177 177 153 149 126 89 305 231 319 286 260 228 231 231 239
309 312 317 325 325 325 199 170 175 175 168 160 195 127 140 150 150 166 213 189 179 132 96 164 190 127 126 131 100 83 163 184 162 159 165 160 145 136 237 7 340 274 239 226 227 217 226
309 312 314 320 320 328 199 173 178 182 178 125 182 140 136 168 155 192 191 203 156 132 137 74 73 109 173 28 345 59 73 108 106 143 171 150 137 137 166 95 226 256 96 279 229 244 232
306 310 313 318 317 313 319 216 185 190 201 23 348 169 147 140 170 198 160 136 107 98 114 99 65 112 115 116 112 105 68 87 92 68 51 111 119 170 167 208 291 256 234 210 176 69 21
306 312 315 316 311 302 294 203 183 192 207 307 11 3 90 126 162 305 134 146 138 122 90 84 76 35 108 123 152 165 180 166 158 126 64 112 136 144 183 240 245 226 175 136 106 176 43
307 312 318 323 310 289 191 180 179 184 198 155 60 29 80 105 20 3 132 161 133 138 124 133 146 95 40 129 153 163 184 153 162 166 169 154 167 207 222 242 267 215 168 77 184 189 75
306 310 320 326 318 157 158 172 163 183 182 113 52 2 94 97 37 25 39 73 75 112 140 163 114 58 126 164 165 202 168 196 155 171 172 172 181 189 189 222 268 140 103 206 123 66 64
304 310 310 310 312 84 149 155 151 181 163 122 91 76 77 79 102 90 69 52 54 42 129 58 117 110 132 133 191 167 180 177 159 179 163 188 187 184 180 205 121 72 99 76 71 63 27